Hourly Data Report for October 17, 2015

All times are specified in Local Standard Time (LST). Add 1 hour to adjust for Daylight Saving Time where and when it is observed.

CORAL HARBOUR A
NUNAVUT

64°11'36.000" N
83°21'34.000" W
62.20 m
2301002
71915
YZS

Download Data

Hourly Data (October 2015)
Hourly Data Report for October 17, 2015
Temp Definition
°C
Dew Point Temp Definition
°C
Rel Hum Definition
%
Wind Dir Definition
10's deg

Wind Spd Definition
km/h
Visibility Definition
km
Stn Press Definition
kPa
Hmdx Definition


Wind Chill Definition


Weather Definition


TIME
00:00 Legend Double Dagger -7.6 -11.3 75 35 18 24.1 100.46   -14 Snow
01:00 Legend Double Dagger -7.9 -11.1 78 32 10 24.1 100.48   -13 Snow
02:00 Legend Double Dagger -7.7 -10.6 80 31 13 24.1 100.49   -13 Snow
03:00 Legend Double Dagger -7.6 -10.5 80 31 14 24.1 100.49   -14 Snow
04:00 Legend Double Dagger -7.8 -10.4 82 33 20 24.1 100.50   -15 Snow
05:00 Legend Double Dagger -7.7 -10.0 84 32 27 24.1 100.51   -16 LegendNANA
06:00 Legend Double Dagger -7.2 -9.5 84 31 25 19.3 100.56   -15 LegendNANA
07:00 Legend Double Dagger -9.2 -11.6 83 32 27 24.1 100.58   -18 Snow
08:00 Legend Double Dagger -10.5 -12.9 83 36 12 24.1 100.61   -17 Snow
09:00 Legend Double Dagger -7.7 -9.7 86 33 13 24.1 100.62   -13 Snow
10:00 Legend Double Dagger -5.6 -8.0 83 33 24 24.1 100.59   -13 Snow
11:00 Legend Double Dagger -5.2 -8.0 81 33 20 24.1 100.60   -12 LegendNANA
12:00 Legend Double Dagger -4.7 -8.3 76 33 18 24.1 100.61   -11 LegendNANA
13:00 Legend Double Dagger -4.5 -7.6 79 34 16 24.1 100.61   -10 Cloudy
14:00 Legend Double Dagger -4.5 -7.3 81 31 14 24.1 100.61   -10 LegendNANA
15:00 Legend Double Dagger -4.6 -7.1 83 29 23 24.1 100.61   -12 Snow
16:00 Legend Double Dagger -4.7 -7.6 80 31 21 24.1 100.62   -11 Snow
17:00 Legend Double Dagger -5.7 -8.3 82 29 17 24.1 100.63   -12 Snow
18:00 Legend Double Dagger -6.2 -8.2 86 28 16 22.5 100.63   -12 Snow
19:00 Legend Double Dagger -6.2 -8.2 86 29 13 24.1 100.63   -12 Snow
20:00 Legend Double Dagger -5.7 -8.1 83 30 15 24.1 100.58   -11 Snow
21:00 Legend Double Dagger -6.1 -8.5 83 31 12 24.1 100.56   -11 Snow
22:00 Legend Double Dagger -6.4 -8.8 83 31 13 24.1 100.56   -12 Cloudy
23:00 Legend Double Dagger -6.4 -9.1 81 29 10 24.1 100.54   -11 LegendNANA

Notes on Data Quality.

Legend

  • E = Estimated
  • M = Missing
  • NA = Not Available
  • ‡ = Partner data that is not subject to review by the National Climate Archives
Date modified: